SAS2142 ESGG-ESSA

Flight info

Callsign SAS2142
Flight time N/A
Altitude 29000
Route LABAN N873 ARS T317 ELTOK
Aircraft A319/M-SDE3FGHIRWY/LB1

Departure

Time 2026-05-06 19:25
Airport Göteborg Landvetter Airport (ESGG)

Arrival

Time N/A
Airport Stockholm-Arlanda Airport (ESSA)
Time Latitude Longitude Altitude Speed Heading
2026-05-06 19:07 57.66777 12.29319 527 ft 0 kts 117°
2026-05-06 19:18 57.66780 12.29306 527 ft 3 kts 117°
2026-05-06 19:18 57.66789 12.29275 527 ft 3 kts 117°
2026-05-06 19:18 57.66797 12.29244 527 ft 3 kts 117°
2026-05-06 19:19 57.66809 12.29220 527 ft 3 kts 191°
2026-05-06 19:19 57.66815 12.29222 527 ft 0 kts 207°
2026-05-06 19:20 57.66814 12.29222 527 ft 1 kts 208°
2026-05-06 19:21 57.66795 12.29196 526 ft 6 kts 217°
2026-05-06 19:21 57.66765 12.29153 526 ft 3 kts 226°
2026-05-06 19:21 57.66772 12.29097 526 ft 7 kts 300°
2026-05-06 19:21 57.66801 12.29002 526 ft 10 kts 303°
2026-05-06 19:22 57.66869 12.29027 527 ft 13 kts 28°
2026-05-06 19:22 57.66945 12.29096 527 ft 11 kts 26°
2026-05-06 19:22 57.67029 12.29174 528 ft 16 kts 26°
2026-05-06 19:22 57.67142 12.29276 530 ft 20 kts 26°
2026-05-06 19:23 57.67279 12.29401 531 ft 18 kts 26°
2026-05-06 19:23 57.67381 12.29489 532 ft 14 kts 14°
2026-05-06 19:23 57.67443 12.29349 532 ft 18 kts 295°
2026-05-06 19:23 57.67460 12.29200 531 ft 12 kts 261°
2026-05-06 19:24 57.67436 12.29029 530 ft 13 kts 230°
2026-05-06 19:24 57.67420 12.29010 530 ft 0 kts 205°
2026-05-06 19:24 57.67264 12.28868 531 ft 60 kts 206°
2026-05-06 19:25 57.66693 12.28348 525 ft 121 kts 206°
2026-05-06 19:25 57.65778 12.27505 528 ft 169 kts 208°
2026-05-06 19:25 57.64757 12.26535 1191 ft 161 kts 209°
2026-05-06 19:25 57.63754 12.25562 1803 ft 165 kts 209°
2026-05-06 19:26 57.62642 12.24762 2205 ft 179 kts 186°
2026-05-06 19:26 57.61418 12.25322 2720 ft 190 kts 152°
2026-05-06 19:26 57.60235 12.26526 3303 ft 197 kts 152°
2026-05-06 19:26 57.58986 12.27802 3809 ft 214 kts 152°
2026-05-06 19:27 57.57667 12.29270 4503 ft 223 kts 143°
2026-05-06 19:27 57.56819 12.31677 5385 ft 233 kts 106°
2026-05-06 19:27 57.56910 12.34847 5813 ft 263 kts 73°
2026-05-06 19:27 57.57569 12.38140 6525 ft 276 kts 68°
2026-05-06 19:28 57.58326 12.41409 7410 ft 280 kts 67°
2026-05-06 19:28 57.59118 12.44756 8342 ft 284 kts 67°
2026-05-06 19:28 57.59907 12.48167 9242 ft 289 kts 68°
2026-05-06 19:28 57.60685 12.51652 10113 ft 294 kts 68°
2026-05-06 19:29 57.61569 12.55238 10478 ft 316 kts 60°
2026-05-06 19:29 57.62856 12.58615 10874 ft 333 kts 48°
2026-05-06 19:29 57.64568 12.61574 11558 ft 339 kts 36°
2026-05-06 19:29 57.66519 12.64078 12306 ft 342 kts 32°
2026-05-06 19:30 57.68502 12.66595 13070 ft 346 kts 32°
2026-05-06 19:30 57.70504 12.69147 13813 ft 350 kts 32°
2026-05-06 19:30 57.72529 12.71736 14471 ft 355 kts 32°
2026-05-06 19:30 57.74575 12.74355 15113 ft 359 kts 32°
2026-05-06 19:31 57.76599 12.76951 15575 ft 357 kts 32°
2026-05-06 19:31 57.78632 12.79564 15885 ft 364 kts 32°
2026-05-06 19:31 57.82864 12.85002 17130 ft 373 kts 31°